Location: Newark
(13.8117°N, 3.6025°W)
Time: 04:56:02
(UTC+00:00)

Courier 1B - Pass Details

Date: 28 August 2019
Orbit: 962 x 1209 km, 28.3° (Epoch: 18 September)

Event Time Altitude Azimuth Distance (km) Brightness Sun altitude
Rises 19:28:07 0° 303° (WNW) 3,774 12.0 -14.9°
Reaches altitude 10° 19:31:10 10° 312° (NW) 2,785 10.9 -15.7°
Maximum altitude 19:37:10 34° 16° (NNE) 1,563 8.6 -17.1°
Enters shadow 19:40:50 20° 66° (ENE) 2,086 8.8 -17.9°
